Location: Unspecified
(0.0000°N, 0.0000°E)
Time: 08:08:08
(UTC+02:00)

SJ-6B - Visible Passes

Search period start: 29 March 2015 00:00
Search period end: 08 April 2015 01:00
Orbit: 516 x 592 km, 97.8° (Epoch: 28 March)

Date Brightness Start Highest point End Pass type
(mag) Time Alt. Az. Time Alt. Az. Time Alt. Az.
03 Apr 5.6 07:34:57 10° NE 07:38:20 25° E 07:41:47 10° SSE visible
03 Apr 6.3 21:10:20 10° WSW 21:11:25 11° W 21:12:14 10° W visible
04 Apr 5.8 07:32:02 10° NE 07:35:14 22° E 07:38:32 10° SSE visible
04 Apr 6.1 21:06:37 10° SW 21:08:19 12° W 21:09:45 10° WNW visible
05 Apr 5.9 07:29:08 10° NE 07:32:08 20° E 07:35:15 10° SSE visible
05 Apr 6.0 21:03:06 10° SW 21:05:11 14° W 21:07:03 10° WNW visible
06 Apr 6.0 07:26:15 10° ENE 07:29:01 18° E 07:31:56 10° SE visible
06 Apr 5.9 20:59:40 10° SW 21:02:02 15° W 21:04:14 10° WNW visible
07 Apr 6.0 07:23:24 10° ENE 07:25:53 16° E 07:28:33 10° SE visible
07 Apr 5.8 20:56:16 10° SW 20:58:54 17° W 21:01:23 10° WNW visible
